EW7082 Weather Reports


Display with metric or nautical units.
time (UTC)temp
F
wind
direction
speed
MPH
gust
MPH
rain 1hr
in
rain 24hr
in
rain mn
in
humidity
%
barometer
mb
20260510185205 60 276 9.0 16.0 0.00 0.00 0.00 80 1019.4
20260510184704 60 258 7.0 13.0 0.00 0.00 0.00 82 1019.5
20260510184204 59 277 8.0 13.0 0.00 0.00 0.00 83 1019.4
20260510183705 58 282 7.0 15.0 0.00 0.00 0.00 82 1019.5
20260510183204 58 277 9.0 17.0 0.00 0.00 0.00 82 1019.4
20260510182205 57 280 10.0 21.0 0.00 0.00 0.00 84 1019.2
20260510181704 56 290 9.0 16.0 0.00 0.00 0.00 84 1019.3
20260510181204 56 279 10.0 14.0 0.00 0.00 0.00 84 1019.2
20260510180705 56 272 9.0 15.0 0.00 0.00 0.00 85 1019.2
20260510180203 56 270 7.0 13.0 0.00 0.00 0.00 85 1019.1
20260510175704 56 259 7.0 13.0 0.00 0.00 0.00 85 1019.0
20260510175205 56 270 6.0 13.0 0.00 0.00 0.00 85 1019.0
20260510174704 55 275 7.0 12.0 0.00 0.00 0.00 85 1019.0
20260510174205 55 256 7.0 13.0 0.00 0.00 0.00 86 1018.9
20260510173705 55 275 7.0 13.0 0.00 0.00 0.00 85 1018.8
20260510173205 55 257 7.0 17.0 0.00 0.00 0.00 85 1018.8
20260510172703 55 280 7.0 13.0 0.00 0.00 0.00 84 1018.6
20260510172205 56 278 9.0 13.0 0.00 0.00 0.00 83 1018.6
20260510171703 56 289 6.0 13.0 0.00 0.00 0.00 82 1018.6
20260510171204 57 273 6.0 12.0 0.00 0.00 0.00 81 1018.7
20260510170705 57 285 7.0 14.0 0.00 0.00 0.00 80 1018.7
20260510165705 57 283 5.0 9.0 0.00 0.00 0.00 80 1018.5
20260510165205 57 282 6.0 12.0 0.00 0.00 0.00 81 1018.5
20260510164704 56 242 8.0 12.0 0.00 0.00 0.00 81 1018.6
20260510164204 56 263 7.0 14.0 0.00 0.00 0.00 80 1018.5
20260510163704 56 257 9.0 14.0 0.00 0.00 0.00 80 1018.2
20260510163204 56 258 7.0 14.0 0.00 0.00 0.00 80 1018.3
20260510162704 56 252 6.0 14.0 0.00 0.00 0.00 79 1018.3
20260510162204 56 256 6.0 15.0 0.00 0.00 0.00 80 1018.4
20260510161703 56 269 9.0 13.0 0.00 0.00 0.00 79 1018.4
20260510161204 56 258 9.0 12.0 0.00 0.00 0.00 79 1018.4
20260510160704 56 271 8.0 16.0 0.00 0.00 0.00 80 1018.4
20260510160204 56 264 7.0 12.0 0.00 0.00 0.00 81 1018.4
20260510155705 55 266 9.0 17.0 0.00 0.00 0.00 82 1018.3
20260510155205 55 274 10.0 18.0 0.00 0.00 0.00 82 1018.3
20260510154704 55 256 9.0 14.0 0.00 0.00 0.00 82 1018.2
20260510154203 55 253 7.0 12.0 0.00 0.00 0.00 82 1018.2
20260510153704 55 250 8.0 14.0 0.00 0.00 0.00 82 1018.1
20260510153205 55 275 9.0 16.0 0.00 0.00 0.00 82 1018.2
20260510152704 55 273 8.0 14.0 0.00 0.00 0.00 82 1018.1
20260510152204 55 272 7.0 15.0 0.00 0.00 0.00 82 1018.0
20260510151705 55 260 10.0 18.0 0.00 0.00 0.00 81 1018.0
20260510151204 55 278 7.0 12.0 0.00 0.00 0.00 81 1018.0
20260510150704 55 271 9.0 13.0 0.00 0.00 0.00 80 1018.0
20260510145703 55 260 8.0 16.0 0.00 0.00 0.00 81 1018.1
20260510145204 54 252 9.0 13.0 0.00 0.00 0.00 80 1018.0
20260510144704 54 267 7.0 14.0 0.00 0.00 0.00 81 1018.0
20260510144204 54 266 9.0 13.0 0.00 0.00 0.00 81 1018.1
20260510143706 54 269 6.0 15.0 0.00 0.00 0.00 81 1018.2
20260510143203 54 252 3.0 8.0 0.00 0.00 0.00 81 1018.1
20260510142703 54 271 2.0 6.0 0.00 0.00 0.00 81 1017.9
20260510142205 53 244 5.0 8.0 0.00 0.00 0.00 81 1017.9
20260510141704 53 253 4.0 7.0 0.00 0.00 0.00 81 1017.9
20260510141204 53 256 3.0 6.0 0.00 0.00 0.00 82 1018.0
20260510140203 52 251 2.0 3.0 0.00 0.00 0.00 83 1018.2
20260510135703 52 252 2.0 3.0 0.00 0.00 0.00 84 1017.9
20260510135204 52 261 1.0 1.0 0.00 0.00 0.00 84 1017.9
20260510134703 52 261 1.0 3.0 0.00 0.00 0.00 85 1018.0
20260510134203 52 214 2.0 3.0 0.00 0.00 0.00 85 1018.1
20260510133704 52 216 2.0 3.0 0.00 0.00 0.00 84 1018.1
20260510133203 52 219 2.0 3.0 0.00 0.00 0.00 84 1017.9
20260510132704 52 224 2.0 3.0 0.00 0.00 0.00 84 1017.8
20260510132205 52 219 2.0 3.0 0.00 0.00 0.00 83 1017.7
20260510131705 52 221 3.0 5.0 0.00 0.00 0.00 83 1017.8
20260510131203 53 212 3.0 9.0 0.00 0.00 0.00 82 1017.6
20260510130704 52 265 5.0 9.0 0.00 0.00 0.00 83 1017.8
20260510130204 52 237 4.0 9.0 0.00 0.00 0.00 83 1017.9
20260510125703 52 258 5.0 9.0 0.00 0.00 0.00 83 1017.9
20260510125204 52 246 3.0 9.0 0.00 0.00 0.00 83 1017.8
20260510124705 52 258 3.0 7.0 0.00 0.00 0.00 84 1017.8
20260510124204 52 255 4.0 7.0 0.00 0.00 0.00 84 1017.5
20260510123704 52 241 4.0 10.0 0.00 0.00 0.00 85 1017.5
20260510123204 52 265 4.0 8.0 0.00 0.00 0.00 86 1017.6
20260510122704 51 249 5.0 9.0 0.00 0.00 0.00 87 1017.7
20260510122204 51 250 4.0 7.0 0.00 0.00 0.00 88 1017.5
20260510121703 51 257 2.0 3.0 0.00 0.00 0.00 88 1017.5
20260510121204 51 247 1.0 3.0 0.00 0.00 0.00 88 1017.4
20260510120704 51 234 1.0 3.0 0.00 0.00 0.00 87 1017.4
20260510120204 51 239 1.0 3.0 0.00 0.00 0.00 88 1017.4
20260510115205 51 217 0.0 1.0 0.00 0.00 0.00 87 1017.4
20260510113705 51 211 2.0 3.0 0.00 0.00 0.00 87 1017.7
20260510113203 51 214 3.0 3.0 0.00 0.00 0.00 86 1017.6
20260510112206 51 219 2.0 3.0 0.00 0.00 0.00 85 1017.5
20260510111205 52 221 2.0 3.0 0.00 0.00 0.00 84 1017.3
20260510110204 52 234 5.0 9.0 0.00 0.00 0.00 84 1017.3
20260510105204 52 237 3.0 9.0 0.00 0.00 0.00 84 1017.3
20260510104704 52 240 3.0 6.0 0.00 0.00 0.00 84 1017.3
20260510104205 52 234 3.0 7.0 0.00 0.00 0.00 84 1017.3
20260510103704 52 239 5.0 10.0 0.00 0.00 0.00 84 1017.3
20260510103204 52 245 4.0 8.0 0.00 0.00 0.00 84 1017.2
20260510102703 52 245 5.0 8.0 0.00 0.00 0.00 84 1017.2
20260510102204 53 251 4.0 8.0 0.00 0.00 0.00 84 1017.2
20260510101704 53 253 5.0 7.0 0.00 0.00 0.00 84 1017.1
20260510101205 53 256 5.0 9.0 0.00 0.00 0.00 84 1017.2
20260510100204 52 247 5.0 8.0 0.00 0.00 0.00 85 1017.2
20260510095703 52 252 3.0 7.0 0.00 0.00 0.00 84 1017.4
20260510095204 53 243 3.0 8.0 0.00 0.00 0.00 84 1017.4
20260510094704 53 240 3.0 7.0 0.00 0.00 0.00 84 1017.4
20260510094205 53 244 5.0 9.0 0.00 0.00 0.00 84 1017.3
20260510093704 53 242 5.0 8.0 0.00 0.00 0.00 84 1017.3
20260510092703 53 242 5.0 9.0 0.00 0.00 0.00 83 1017.3
20260510092204 53 264 6.0 13.0 0.00 0.00 0.00 83 1017.3
20260510091703 53 265 7.0 13.0 0.00 0.00 0.00 84 1017.3
20260510090706 53 261 5.0 9.0 0.00 0.00 0.00 84 1017.3
20260510085705 54 260 6.0 10.0 0.00 0.00 0.00 83 1017.3
20260510085205 54 266 6.0 12.0 0.00 0.00 0.00 83 1017.3
20260510084703 54 253 7.0 12.0 0.00 0.00 0.00 83 1017.1
20260510084204 54 266 6.0 12.0 0.00 0.00 0.00 83 1017.1
20260510083704 54 260 9.0 12.0 0.00 0.00 0.00 82 1017.0
20260510083204 54 261 7.0 13.0 0.00 0.00 0.00 83 1017.0
20260510082704 54 264 7.0 14.0 0.00 0.00 0.00 83 1017.0
20260510082204 54 258 9.0 15.0 0.00 0.00 0.00 83 1017.0
20260510081705 54 260 7.0 12.0 0.00 0.00 0.00 83 1016.9
20260510080705 54 260 8.0 17.0 0.00 0.00 0.00 84 1016.9
20260510080203 54 264 7.0 12.0 0.00 0.00 0.00 85 1017.1
20260510075704 54 261 6.0 9.0 0.00 0.00 0.00 85 1017.1
20260510074704 53 270 6.0 12.0 0.00 0.00 0.00 85 1017.1
20260510074205 53 263 7.0 10.0 0.00 0.00 0.00 86 1017.0
20260510073705 53 241 6.0 10.0 0.00 0.00 0.00 86 1017.0
20260510073203 53 257 3.0 7.0 0.00 0.00 0.00 86 1017.0
20260510072704 53 251 5.0 9.0 0.00 0.00 0.00 86 1016.9
20260510072205 53 250 5.0 12.0 0.00 0.00 0.00 86 1016.9
20260510071206 53 239 5.0 9.0 0.00 0.00 0.00 86 1016.9
20260510070204 54 248 5.0 12.0 0.00 0.00 0.00 86 1017.0
20260510065704 54 262 4.0 10.0 0.00 0.00 0.00 85 1017.0
20260510065204 54 265 8.0 14.0 0.00 0.00 0.00 86 1017.1
20260510064204 54 257 6.0 12.0 0.00 0.00 0.00 85 1017.1
20260510063704 54 261 7.0 10.0 0.00 0.00 0.00 85 1017.1
20260510063204 54 253 6.0 9.0 0.00 0.00 0.00 85 1017.0
20260510062704 54 262 7.0 12.0 0.00 0.00 0.00 84 1017.1
20260510062205 54 270 9.0 12.0 0.00 0.00 0.00 84 1017.1
20260510061703 54 273 7.0 12.0 0.00 0.00 0.00 84 1017.0
20260510060205 54 262 7.0 12.0 0.00 0.00 0.00 84 1016.9
20260510055704 54 269 7.0 10.0 0.00 0.00 0.00 84 1016.9
20260510055205 54 277 6.0 10.0 0.00 0.00 0.00 84 1017.0
20260510054704 54 270 5.0 8.0 0.00 0.00 0.00 84 1017.0
20260510054203 54 268 4.0 9.0 0.00 0.00 0.00 84 1017.0
20260510053705 54 259 5.0 9.0 0.00 0.00 0.00 84 1016.9
20260510053204 54 273 6.0 9.0 0.00 0.00 0.00 84 1016.9
20260510052703 54 267 5.0 9.0 0.00 0.00 0.00 84 1016.9
20260510052204 54 261 5.0 10.0 0.00 0.00 0.00 85 1016.9
20260510051703 54 269 5.0 8.0 0.00 0.00 0.00 85 1017.0
20260510051204 54 261 5.0 7.0 0.00 0.00 0.00 85 1017.0
20260510050706 54 258 4.0 10.0 0.00 0.00 0.00 85 1017.0
20260510050205 54 257 5.0 8.0 0.00 0.00 0.00 85 1017.1
20260510045704 54 257 3.0 9.0 0.00 0.00 0.00 84 1017.0
20260510045204 54 264 5.0 12.0 0.00 0.00 0.00 85 1017.1
20260510044704 54 257 6.0 12.0 0.00 0.00 0.00 85 1017.2
20260510044205 54 266 7.0 14.0 0.00 0.00 0.00 86 1017.1
20260510043705 54 262 8.0 13.0 0.00 0.00 0.00 86 1017.2
20260510042704 54 262 8.0 14.0 0.00 0.00 0.00 87 1017.3
20260510042204 54 266 9.0 15.0 0.00 0.00 0.00 87 1017.3
20260510041703 54 269 8.0 12.0 0.00 0.00 0.00 87 1017.2
20260510040704 55 274 8.0 15.0 0.00 0.00 0.00 85 1017.2
20260510040205 56 258 7.0 12.0 0.00 0.00 0.00 82 1017.1
20260510034706 59 285 3.0 7.0 0.00 0.00 0.00 74 1016.9
20260510034204 60 295 3.0 8.0 0.00 0.00 0.00 71 1016.7
20260510033705 61 308 0.0 3.0 0.00 0.00 0.00 69 1016.7
20260510033205 62 311 1.0 2.0 0.00 0.00 0.00 68 1016.6
20260510032704 63 36 0.0 1.0 0.00 0.00 0.00 65 1016.6
20260510032206 64 36 0.0 0.0 0.00 0.00 0.00 64 1016.7
20260510031706 64 36 0.0 0.0 0.00 0.00 0.00 62 1016.7
20260510031205 65 36 0.0 0.0 0.00 0.00 0.00 62 1016.7
20260510030706 64 36 0.0 0.0 0.00 0.00 0.00 63 1016.7
20260510030205 64 36 0.0 0.0 0.00 0.00 0.00 60 1016.7
20260510025705 64 36 0.0 1.0 0.00 0.00 0.00 62 1016.7
20260510025206 64 36 0.0 0.0 0.00 0.00 0.00 63 1016.8
20260510024704 64 36 0.0 1.0 0.00 0.00 0.00 62 1016.7
20260510024204 64 36 1.0 2.0 0.00 0.00 0.00 62 1016.7
20260510023705 64 63 0.0 1.0 0.00 0.00 0.00 63 1016.8
20260510022704 64 66 2.0 3.0 0.00 0.00 0.00 61 1016.8
20260510022205 64 106 1.0 3.0 0.00 0.00 0.00 61 1016.9
20260510021704 64 70 1.0 3.0 0.00 0.00 0.00 62 1016.9
20260510021205 64 75 2.0 3.0 0.00 0.00 0.00 60 1017.0
20260510020705 64 61 2.0 3.0 0.00 0.00 0.00 60 1017.0
20260510015704 64 63 3.0 6.0 0.00 0.00 0.00 61 1017.1
20260510015204 64 85 3.0 6.0 0.00 0.00 0.00 62 1017.1
20260510014703 64 66 3.0 3.0 0.00 0.00 0.00 61 1017.2
20260510014203 64 92 2.0 6.0 0.00 0.00 0.00 60 1017.2
20260510013705 64 64 5.0 6.0 0.00 0.00 0.00 62 1017.2
20260510012704 64 16 4.0 6.0 0.00 0.00 0.00 62 1017.3
20260510012205 65 43 5.0 9.0 0.00 0.00 0.00 62 1017.5
20260510011704 64 22 3.0 5.0 0.00 0.00 0.00 62 1017.6
20260510011204 64 37 4.0 6.0 0.00 0.00 0.00 60 1017.5
20260510010704 64 60 2.0 6.0 0.00 0.00 0.00 63 1017.7
20260510010204 64 81 2.0 5.0 0.00 0.00 0.00 62 1017.8
20260510005705 64 59 3.0 6.0 0.00 0.00 0.00 66 1017.9
20260510005206 63 56 3.0 5.0 0.00 0.00 0.00 64 1018.0
20260510004704 64 65 3.0 5.0 0.00 0.00 0.00 64 1018.1
20260510004204 64 65 2.0 3.0 0.00 0.00 0.00 63 1018.2
20260510003705 64 47 1.0 3.0 0.00 0.00 0.00 64 1018.2
20260510002205 64 12 3.0 5.0 0.00 0.00 0.00 63 1018.4
20260510001703 64 1 3.0 5.0 0.00 0.00 0.00 64 1018.4
20260510001204 64 64 2.0 5.0 0.00 0.00 0.00 64 1018.5
20260510000704 64 326 1.0 5.0 0.00 0.00 0.00 65 1018.6
20260510000204 64 23 2.0 5.0 0.00 0.00 0.00 62 1018.6
20260509235206 64 16 3.0 6.0 0.00 0.00 0.00 61 1018.7
20260509234705 64 357 3.0 6.0 0.00 0.00 0.00 62 1018.7
20260509233706 64 353 5.0 8.0 0.00 0.00 0.00 64 1018.9
20260509233205 64 354 3.0 7.0 0.00 0.00 0.00 65 1018.8
20260509232704 64 32 3.0 7.0 0.00 0.00 0.00 67 1018.9
20260509232205 64 349 3.0 6.0 0.00 0.00 0.00 66 1019.2
20260509231704 64 65 2.0 5.0 0.00 0.00 0.00 66 1019.2
20260509231204 64 46 2.0 5.0 0.00 0.00 0.00 68 1019.1
20260509230706 64 48 3.0 6.0 0.00 0.00 0.00 67 1019.2
20260509230204 64 48 4.0 7.0 0.00 0.00 0.00 68 1019.4
20260509225704 64 103 3.0 6.0 0.00 0.00 0.00 66 1019.5
20260509225205 64 121 1.0 3.0 0.00 0.00 0.00 67 1019.5
20260509224704 64 41 3.0 6.0 0.00 0.00 0.00 67 1019.6
20260509224206 64 40 3.0 6.0 0.00 0.00 0.00 64 1019.7
20260509223706 64 40 1.0 7.0 0.00 0.00 0.00 70 1019.7
20260509223205 64 94 3.0 6.0 0.00 0.00 0.00 70 1019.8
20260509222205 63 43 3.0 7.0 0.00 0.00 0.00 70 1020.0
20260509221204 63 96 1.0 5.0 0.00 0.00 0.00 71 1020.2
20260509220705 63 301 2.0 3.0 0.00 0.00 0.00 74 1020.3
20260509215704 62 18 2.0 3.0 0.00 0.00 0.00 73 1020.5
20260509214704 62 341 3.0 8.0 0.00 0.00 0.00 74 1020.5
20260509214203 62 37 3.0 8.0 0.00 0.00 0.00 75 1020.5
20260509213704 62 334 3.0 8.0 0.00 0.00 0.00 75 1020.6
20260509213203 62 338 3.0 8.0 0.00 0.00 0.00 76 1020.8
20260509211704 62 315 4.0 8.0 0.00 0.00 0.00 74 1020.8
20260509210704 62 336 2.0 3.0 0.00 0.00 0.00 76 1020.8
20260509205704 61 238 1.0 7.0 0.00 0.00 0.00 76 1020.9
20260509205204 61 285 5.0 8.0 0.00 0.00 0.00 76 1021.0
20260509204703 61 303 3.0 8.0 0.00 0.00 0.00 78 1021.1
20260509204204 60 294 3.0 10.0 0.00 0.00 0.00 79 1021.3
20260509203705 59 329 7.0 12.0 0.00 0.00 0.00 76 1021.3
20260509203204 59 313 5.0 12.0 0.00 0.00 0.00 77 1021.4
20260509202704 59 312 6.0 12.0 0.00 0.00 0.00 77 1021.3
20260509202204 60 315 6.0 10.0 0.00 0.00 0.00 76 1021.2
20260509201703 60 335 6.0 10.0 0.00 0.00 0.00 76 1021.3
20260509201205 59 336 3.0 7.0 0.00 0.00 0.00 77 1021.2
20260509200705 60 337 5.0 8.0 0.00 0.00 0.00 76 1021.2
20260509200204 60 333 5.0 8.0 0.00 0.00 0.00 76 1021.2
20260509195704 60 350 5.0 6.0 0.00 0.00 0.00 77 1021.0
20260509195206 60 9 4.0 8.0 0.00 0.00 0.00 77 1021.0
20260509194705 60 300 3.0 6.0 0.00 0.00 0.00 77 1021.2
20260509193706 60 324 5.0 9.0 0.00 0.00 0.00 77 1021.4
20260509193203 60 292 4.0 7.0 0.00 0.00 0.00 77 1021.5
20260509192703 60 331 4.0 8.0 0.00 0.00 0.00 78 1021.6
20260509192205 60 338 3.0 7.0 0.00 0.00 0.00 78 1021.6
20260509191204 59 351 5.0 12.0 0.00 0.00 0.00 78 1021.6
20260509190705 59 337 5.0 8.0 0.00 0.00 0.00 79 1021.7
20260509190204 59 337 3.0 6.0 0.00 0.00 0.00 79 1021.8
20260509185704 59 313 4.0 8.0 0.00 0.00 0.00 80 1021.8